START_TIME,STEP,MOV.,M34,t_acc.,L5,t_acc.,L18,t_acc.,L14,t_acc.
1981-08-29 15:00:25.310 ,3,0,0.,12.0,0.,12.0,0.,12.0,0.,12.0
1981-08-29 15:00:37.310 ,3,0,0.,12.0,0.,12.0,0.,12.0,0.,12.0
1981-08-29 15:00:49.310 ,4,1,0.,12.0,0.,12.0,0.,12.0,0.,12.0
1981-08-29 15:01:01.310 ,4,1,0.,12.0,0.,12.0,0.,12.0,0.,12.0
1981-08-29 15:01:13.310 ,4,0,0.,12.0,0.,12.0,0.,12.0,0.,12.0
1981-08-29 15:01:25.310 ,4,0,0.,12.0,0.,12.0,0.,12.0,0.,12.0
1981-08-29 15:01:37.310 ,5,1,0.,12.0,0.,12.0,0.,12.0,0.,12.0
1981-08-29 15:01:49.310 ,5,1,0.,12.0,0.,12.0,0.,12.0,0.,12.0
1981-08-29 15:02:01.310 ,5,0,0.,12.0,0.,12.0,0.,12.0,0.,12.0
1981-08-29 15:02:13.310 ,5,0,0.,12.0,0.,12.0,0.,12.0,0.,12.0
1981-08-29 15:02:25.310 ,6,1,0.,12.0,0.,12.0,0.,12.0,0.,12.0
1981-08-29 15:02:37.310 ,6,1,0.,12.0,0.,12.0,0.,12.0,0.,12.0
1981-08-29 15:02:49.310 ,6,0,0.,12.0,0.,12.0,0.,12.0,0.,12.0
1981-08-29 15:03:01.310 ,6,0,0.,12.0,0.,12.0,0.,12.0,0.,12.0
1981-08-29 15:03:13.310 ,7,1,0.,12.0,0.,12.0,0.,12.0,1.,12.0
1981-08-29 15:03:25.310 ,7,1,0.,12.0,0.,12.0,0.,12.0,0.,12.0
1981-08-29 15:03:37.310 ,7,0,0.,12.0,0.,12.0,0.,12.0,0.,12.0
1981-08-29 15:03:49.310 ,7,0,0.,12.0,0.,12.0,0.,12.0,0.,12.0
1981-08-29 15:04:01.310 ,7,1,0.,12.0,0.,12.0,0.,12.0,0.,12.0
1981-08-29 15:04:13.310 ,7,1,0.,12.0,0.,12.0,0.,12.0,0.,12.0
1981-08-29 15:04:25.310 ,6,1,0.,12.0,0.,12.0,0.,12.0,0.,12.0
1981-08-29 15:04:37.310 ,6,1,0.,12.0,0.,12.0,0.,12.0,0.,12.0
1981-08-29 15:04:49.310 ,5,1,0.,12.0,0.,12.0,0.,12.0,0.,12.0
1981-08-29 15:05:01.310 ,5,1,0.,12.0,0.,12.0,0.,12.0,0.,12.0
1981-08-29 15:05:13.310 ,4,1,0.,12.0,0.,12.0,0.,12.0,0.,12.0
1981-08-29 15:05:25.310 ,4,1,0.,12.0,0.,12.0,0.,12.0,0.,12.0
1981-08-29 15:05:37.310 ,3,1,0.,12.0,0.,12.0,0.,12.0,0.,12.0
1981-08-29 15:05:49.310 ,3,1,0.,12.0,0.,12.0,0.,12.0,0.,12.0
1981-08-29 15:06:01.310 ,2,1,0.,12.0,0.,12.0,0.,12.0,0.,12.0
1981-08-29 15:06:13.310 ,2,1,0.,12.0,0.,12.0,0.,12.0,0.,12.0
1981-08-29 15:06:25.310 ,1,1,0.,12.0,0.,12.0,0.,12.0,0.,12.0
1981-08-29 15:06:37.310 ,1,1,0.,12.0,0.,12.0,0.,12.0,0.,12.0
1981-08-29 15:06:49.310 ,0,1,0.,12.0,0.,12.0,0.,12.0,0.,12.0
1981-08-29 15:07:01.310 ,0,1,0.,12.0,0.,12.0,0.,12.0,0.,12.0
1981-08-29 15:07:13.310 ,0,1,0.,12.0,0.,12.0,0.,12.0,0.,12.0
1981-08-29 15:07:25.310 ,0,1,0.,12.0,0.,12.0,0.,12.0,1.,12.0
1981-08-29 15:07:37.310 ,1,1,0.,12.0,0.,12.0,0.,12.0,0.,12.0
1981-08-29 15:07:49.310 ,1,1,0.,12.0,0.,12.0,0.,12.0,0.,12.0
1981-08-29 15:08:01.310 ,2,1,0.,12.0,0.,12.0,0.,12.0,0.,12.0
1981-08-29 15:08:13.310 ,2,1,0.,12.0,0.,12.0,0.,12.0,0.,12.0
1981-08-29 15:08:25.310 ,3,1,0.,12.0,0.,12.0,0.,12.0,0.,12.0
1981-08-29 15:08:37.310 ,3,1,0.,12.0,0.,12.0,0.,12.0,0.,12.0
1981-08-29 15:08:49.310 ,4,1,0.,12.0,0.,12.0,0.,12.0,0.,12.0
1981-08-29 15:09:01.310 ,4,1,0.,12.0,0.,12.0,0.,12.0,0.,12.0
1981-08-29 15:09:13.310 ,5,1,0.,12.0,0.,12.0,0.,12.0,0.,12.0
1981-08-29 15:09:25.310 ,5,1,0.,12.0,0.,12.0,0.,12.0,0.,12.0
1981-08-29 15:09:37.310 ,6,1,0.,12.0,0.,12.0,0.,12.0,0.,12.0
1981-08-29 15:09:49.310 ,6,1,0.,12.0,0.,12.0,0.,12.0,0.,12.0
1981-08-29 15:10:01.310 ,7,1,0.,12.0,0.,12.0,0.,12.0,0.,12.0
1981-08-29 15:10:13.310 ,7,1,0.,12.0,0.,12.0,0.,12.0,0.,12.0
1981-08-29 15:10:25.310 ,7,1,0.,12.0,0.,12.0,0.,12.0,0.,12.0
1981-08-29 15:10:37.310 ,7,1,0.,12.0,0.,12.0,0.,12.0,0.,12.0
1981-08-29 15:10:49.310 ,7,0,0.,12.0,0.,12.0,0.,12.0,0.,12.0
1981-08-29 15:11:01.310 ,7,0,0.,12.0,0.,12.0,0.,12.0,0.,12.0
1981-08-29 15:11:13.310 ,6,1,0.,12.0,0.,12.0,0.,12.0,0.,12.0
1981-08-29 15:11:25.310 ,6,1,0.,12.0,0.,12.0,0.,12.0,0.,12.0
1981-08-29 15:11:37.310 ,6,0,0.,12.0,0.,12.0,0.,12.0,0.,12.0
1981-08-29 15:11:49.310 ,6,0,0.,12.0,0.,12.0,0.,12.0,0.,12.0
1981-08-29 15:12:01.310 ,5,1,0.,12.0,0.,12.0,0.,12.0,0.,12.0
1981-08-29 15:12:13.310 ,5,1,0.,12.0,0.,12.0,0.,12.0,0.,12.0
1981-08-29 15:12:25.310 ,5,0,0.,12.0,0.,12.0,0.,12.0,0.,12.0
1981-08-29 15:12:37.310 ,5,0,0.,12.0,0.,12.0,0.,12.0,0.,12.0
1981-08-29 15:12:49.310 ,4,1,0.,12.0,0.,12.0,0.,12.0,0.,12.0
1981-08-29 15:13:01.310 ,4,1,0.,12.0,0.,12.0,0.,12.0,0.,12.0
1981-08-29 15:13:13.310 ,4,0,0.,12.0,0.,12.0,0.,12.0,0.,12.0
1981-08-29 15:13:25.310 ,4,0,0.,12.0,0.,12.0,0.,12.0,0.,12.0
1981-08-29 15:13:37.310 ,3,1,0.,12.0,0.,12.0,0.,12.0,0.,12.0
1981-08-29 15:13:49.310 ,3,1,0.,12.0,0.,12.0,0.,12.0,0.,12.0
1981-08-29 15:14:01.310 ,3,0,0.,12.0,0.,12.0,0.,12.0,0.,12.0
1981-08-29 15:14:13.310 ,3,0,0.,12.0,0.,12.0,0.,12.0,0.,12.0
1981-08-29 15:14:25.310 ,2,1,0.,12.0,0.,12.0,0.,12.0,0.,12.0
1981-08-29 15:14:37.310 ,2,1,0.,12.0,0.,12.0,0.,12.0,0.,12.0
1981-08-29 15:14:49.310 ,2,0,0.,12.0,0.,12.0,0.,12.0,0.,12.0
1981-08-29 15:15:01.310 ,2,0,0.,12.0,0.,12.0,0.,12.0,0.,12.0
1981-08-29 15:15:13.310 ,1,1,0.,12.0,0.,12.0,0.,12.0,0.,12.0
1981-08-29 15:15:25.310 ,1,1,0.,12.0,0.,12.0,0.,12.0,0.,12.0
1981-08-29 15:15:37.310 ,1,0,0.,12.0,0.,12.0,0.,12.0,0.,12.0
1981-08-29 15:15:49.310 ,1,0,0.,12.0,0.,12.0,0.,12.0,0.,12.0
1981-08-29 15:16:01.310 ,0,1,0.,12.0,0.,12.0,0.,12.0,0.,12.0
1981-08-29 15:16:13.310 ,0,1,0.,12.0,0.,12.0,0.,12.0,0.,12.0
1981-08-29 15:16:25.310 ,0,0,0.,12.0,0.,12.0,0.,12.0,0.,12.0
1981-08-29 15:16:37.310 ,0,0,0.,12.0,0.,12.0,0.,12.0,0.,12.0
1981-08-29 15:16:49.310 ,0,1,0.,12.0,0.,12.0,0.,12.0,0.,12.0
1981-08-29 15:17:01.310 ,0,1,0.,12.0,0.,12.0,0.,12.0,0.,12.0
1981-08-29 15:17:13.310 ,0,0,0.,12.0,0.,12.0,0.,12.0,0.,12.0
1981-08-29 15:17:25.310 ,0,0,0.,12.0,0.,12.0,0.,12.0,0.,12.0
1981-08-29 15:17:37.310 ,1,1,0.,12.0,0.,12.0,0.,12.0,0.,12.0
1981-08-29 15:17:49.310 ,1,1,0.,12.0,0.,12.0,0.,12.0,0.,12.0
1981-08-29 15:18:01.310 ,1,0,0.,12.0,0.,12.0,0.,12.0,0.,12.0
1981-08-29 15:18:13.310 ,1,0,0.,12.0,0.,12.0,0.,12.0,0.,12.0
1981-08-29 15:18:25.310 ,2,1,0.,12.0,0.,12.0,0.,12.0,0.,12.0
1981-08-29 15:18:37.310 ,2,1,0.,12.0,0.,12.0,0.,12.0,0.,12.0
1981-08-29 15:18:49.310 ,2,0,0.,12.0,0.,12.0,0.,12.0,0.,12.0
1981-08-29 15:19:01.310 ,2,0,0.,12.0,0.,12.0,0.,12.0,0.,12.0
1981-08-29 15:19:13.310 ,3,1,0.,12.0,0.,12.0,0.,12.0,0.,12.0
1981-08-29 15:19:25.310 ,3,1,0.,12.0,0.,12.0,0.,12.0,0.,12.0
1981-08-29 15:19:37.310 ,3,0,0.,12.0,0.,12.0,0.,12.0,0.,12.0
1981-08-29 15:19:49.310 ,3,0,0.,12.0,0.,12.0,0.,12.0,0.,12.0
1981-08-29 15:20:49.310 ,0,0,0.,12.0,0.,12.0,0.,12.0,0.,12.0
1981-08-29 15:21:01.310 ,0,0,0.,12.0,0.,12.0,0.,12.0,0.,12.0
1981-08-29 15:21:13.310 ,0,0,0.,12.0,0.,12.0,0.,12.0,0.,12.0
1981-08-29 15:21:25.310 ,0,0,0.,12.0,0.,12.0,0.,12.0,0.,12.0
1981-08-29 15:21:13.310 ,0,0,0.,12.0,0.,12.0,0.,12.0,0.,12.0
1981-08-29 15:21:25.310 ,0,0,0.,12.0,0.,12.0,0.,12.0,0.,12.0
1981-08-29 15:21:37.310 ,6,1,0.,12.0,0.,12.0,0.,12.0,0.,12.0
1981-08-29 15:21:49.310 ,6,1,0.,12.0,0.,12.0,0.,12.0,0.,12.0
1981-08-29 15:22:01.310 ,6,0,0.,12.0,0.,12.0,0.,12.0,0.,12.0
1981-08-29 15:22:13.310 ,6,0,0.,12.0,0.,12.0,0.,12.0,0.,12.0
1981-08-29 15:22:25.310 ,7,1,0.,12.0,0.,12.0,0.,12.0,0.,12.0
1981-08-29 15:22:37.310 ,7,1,0.,12.0,0.,12.0,0.,12.0,0.,12.0
1981-08-29 15:22:49.310 ,7,0,0.,12.0,0.,12.0,0.,12.0,0.,12.0
1981-08-29 15:23:01.310 ,7,0,0.,12.0,0.,12.0,0.,12.0,0.,12.0
1981-08-29 15:23:13.310 ,7,1,0.,12.0,0.,12.0,0.,12.0,0.,12.0
1981-08-29 15:23:25.310 ,7,1,0.,12.0,0.,12.0,0.,12.0,0.,12.0
1981-08-29 15:23:37.310 ,6,1,0.,12.0,0.,12.0,0.,12.0,0.,12.0
1981-08-29 15:23:49.310 ,6,1,0.,12.0,0.,12.0,0.,12.0,0.,12.0
1981-08-29 15:24:01.310 ,5,1,0.,12.0,0.,12.0,0.,12.0,0.,12.0
1981-08-29 15:24:13.310 ,5,1,0.,12.0,0.,12.0,0.,12.0,0.,12.0
1981-08-29 15:24:25.310 ,4,1,0.,12.0,0.,12.0,0.,12.0,0.,12.0
1981-08-29 15:24:37.310 ,4,1,0.,12.0,0.,12.0,0.,12.0,0.,12.0
1981-08-29 15:24:49.310 ,3,1,0.,12.0,0.,12.0,0.,12.0,0.,12.0
1981-08-29 15:25:01.310 ,3,1,0.,12.0,0.,12.0,0.,12.0,0.,12.0
1981-08-29 15:25:13.310 ,2,1,0.,12.0,0.,12.0,0.,12.0,0.,12.0
1981-08-29 15:25:25.310 ,2,1,0.,12.0,0.,12.0,0.,12.0,1.,12.0
1981-08-29 15:25:37.310 ,1,1,0.,12.0,0.,12.0,0.,12.0,0.,12.0
1981-08-29 15:25:49.310 ,1,1,0.,12.0,0.,12.0,0.,12.0,0.,12.0
1981-08-29 15:26:01.310 ,0,1,0.,12.0,0.,12.0,0.,12.0,0.,12.0
1981-08-29 15:26:13.310 ,0,1,0.,12.0,0.,12.0,0.,12.0,0.,12.0
1981-08-29 15:26:25.310 ,0,1,0.,12.0,0.,12.0,0.,12.0,0.,12.0
1981-08-29 15:26:37.310 ,0,1,0.,12.0,0.,12.0,0.,12.0,0.,12.0
1981-08-29 15:26:49.310 ,1,1,0.,12.0,0.,12.0,0.,12.0,0.,12.0
1981-08-29 15:27:01.310 ,1,1,0.,12.0,0.,12.0,0.,12.0,0.,12.0
1981-08-29 15:27:13.310 ,2,1,0.,12.0,0.,12.0,0.,12.0,0.,12.0
1981-08-29 15:27:25.310 ,2,1,0.,12.0,0.,12.0,0.,12.0,0.,12.0
1981-08-29 15:27:37.310 ,3,1,0.,12.0,0.,12.0,0.,12.0,0.,12.0
1981-08-29 15:27:49.310 ,3,1,0.,12.0,0.,12.0,0.,12.0,0.,12.0
1981-08-29 15:28:01.310 ,4,1,0.,12.0,0.,12.0,0.,12.0,0.,12.0
1981-08-29 15:28:13.310 ,4,1,0.,12.0,0.,12.0,0.,12.0,0.,12.0
1981-08-29 15:28:25.310 ,5,1,0.,12.0,0.,12.0,0.,12.0,0.,12.0
1981-08-29 15:28:37.310 ,5,1,0.,12.0,0.,12.0,0.,12.0,0.,12.0
1981-08-29 15:28:49.310 ,6,1,0.,12.0,0.,12.0,0.,12.0,0.,12.0
1981-08-29 15:29:01.310 ,6,1,0.,12.0,0.,12.0,0.,12.0,0.,12.0
1981-08-29 15:29:13.310 ,7,1,0.,12.0,0.,12.0,0.,12.0,0.,12.0
1981-08-29 15:29:25.310 ,7,1,0.,12.0,0.,12.0,0.,12.0,0.,12.0
1981-08-29 15:29:37.310 ,7,1,0.,12.0,0.,12.0,0.,12.0,0.,12.0
1981-08-29 15:29:49.310 ,7,1,0.,12.0,0.,12.0,0.,12.0,0.,12.0
1981-08-29 15:30:01.310 ,7,0,0.,12.0,0.,12.0,0.,12.0,0.,12.0
1981-08-29 15:30:13.310 ,7,0,0.,12.0,0.,12.0,0.,12.0,0.,12.0
1981-08-29 15:30:25.310 ,6,1,0.,12.0,0.,12.0,0.,12.0,0.,12.0
1981-08-29 15:30:37.310 ,6,1,0.,12.0,0.,12.0,0.,12.0,0.,12.0
1981-08-29 15:30:49.310 ,6,0,0.,12.0,0.,12.0,0.,12.0,0.,12.0
1981-08-29 15:31:01.310 ,6,0,0.,12.0,0.,12.0,0.,12.0,0.,12.0
1981-08-29 15:31:13.310 ,5,1,0.,12.0,0.,12.0,0.,12.0,0.,12.0
1981-08-29 15:31:25.310 ,5,1,0.,12.0,0.,12.0,0.,12.0,0.,12.0
1981-08-29 15:31:37.310 ,5,0,0.,12.0,0.,12.0,0.,12.0,0.,12.0
1981-08-29 15:31:49.310 ,5,0,0.,12.0,0.,12.0,0.,12.0,0.,12.0
1981-08-29 15:32:01.310 ,4,1,0.,12.0,0.,12.0,0.,12.0,0.,12.0
1981-08-29 15:32:13.310 ,4,1,0.,12.0,0.,12.0,0.,12.0,0.,12.0
1981-08-29 15:32:25.310 ,4,0,0.,12.0,0.,12.0,0.,12.0,0.,12.0
1981-08-29 15:32:37.310 ,4,0,0.,12.0,0.,12.0,0.,12.0,0.,12.0
1981-08-29 15:32:49.310 ,3,1,0.,12.0,0.,12.0,0.,12.0,0.,12.0
1981-08-29 15:33:01.310 ,3,1,0.,12.0,0.,12.0,0.,12.0,0.,12.0
1981-08-29 15:33:13.310 ,3,0,0.,12.0,0.,12.0,0.,12.0,0.,12.0
1981-08-29 15:33:25.310 ,3,0,0.,12.0,0.,12.0,0.,12.0,0.,12.0
1981-08-29 15:33:37.310 ,2,1,0.,12.0,0.,12.0,0.,12.0,0.,12.0
1981-08-29 15:33:49.310 ,2,1,0.,12.0,0.,12.0,0.,12.0,0.,12.0
1981-08-29 15:34:01.310 ,2,0,0.,12.0,0.,12.0,0.,12.0,0.,12.0
1981-08-29 15:34:13.310 ,2,0,0.,12.0,0.,12.0,0.,12.0,0.,12.0
1981-08-29 15:34:25.310 ,1,1,0.,12.0,0.,12.0,0.,12.0,0.,12.0
1981-08-29 15:34:37.310 ,1,1,0.,12.0,0.,12.0,0.,12.0,0.,12.0
1981-08-29 15:34:49.310 ,1,0,0.,12.0,0.,12.0,0.,12.0,0.,12.0
1981-08-29 15:35:01.310 ,1,0,0.,12.0,0.,12.0,0.,12.0,0.,12.0
1981-08-29 15:35:13.310 ,0,1,0.,12.0,0.,12.0,0.,12.0,0.,12.0
1981-08-29 15:35:25.310 ,0,1,0.,12.0,0.,12.0,0.,12.0,0.,12.0
1981-08-29 15:35:37.310 ,0,0,0.,12.0,0.,12.0,0.,12.0,0.,12.0
1981-08-29 15:35:49.310 ,0,0,0.,12.0,0.,12.0,0.,12.0,0.,12.0
1981-08-29 15:36:01.310 ,0,1,0.,12.0,0.,12.0,0.,12.0,1.,12.0
1981-08-29 15:36:13.310 ,0,1,0.,12.0,0.,12.0,0.,12.0,0.,12.0
1981-08-29 15:36:25.310 ,0,0,0.,12.0,0.,12.0,0.,12.0,0.,12.0
1981-08-29 15:36:37.310 ,0,0,0.,12.0,0.,12.0,0.,12.0,0.,12.0
1981-08-29 15:36:49.310 ,1,1,0.,12.0,0.,12.0,0.,12.0,0.,12.0
1981-08-29 15:37:01.310 ,1,1,0.,12.0,0.,12.0,0.,12.0,0.,12.0
1981-08-29 15:37:13.310 ,1,0,0.,12.0,0.,12.0,0.,12.0,0.,12.0
1981-08-29 15:37:25.310 ,1,0,0.,12.0,0.,12.0,0.,12.0,0.,12.0
1981-08-29 15:37:37.310 ,2,1,0.,12.0,0.,12.0,0.,12.0,0.,12.0
1981-08-29 15:37:49.310 ,2,1,0.,12.0,0.,12.0,0.,12.0,0.,12.0
1981-08-29 15:38:01.310 ,2,0,0.,12.0,0.,12.0,0.,12.0,0.,12.0
1981-08-29 15:38:13.310 ,2,0,0.,12.0,0.,12.0,0.,12.0,0.,12.0
1981-08-29 15:38:25.310 ,3,1,0.,12.0,0.,12.0,0.,12.0,0.,12.0
1981-08-29 15:38:37.310 ,3,1,0.,12.0,0.,12.0,0.,12.0,0.,12.0
1981-08-29 15:38:49.310 ,3,0,0.,12.0,0.,12.0,0.,12.0,0.,12.0
1981-08-29 15:39:01.310 ,3,0,0.,12.0,0.,12.0,0.,12.0,0.,12.0
1981-08-29 15:39:13.310 ,4,1,0.,12.0,0.,12.0,0.,12.0,0.,12.0
1981-08-29 15:39:25.310 ,4,1,0.,12.0,0.,12.0,0.,12.0,0.,12.0
1981-08-29 15:39:37.310 ,4,0,0.,12.0,0.,12.0,0.,12.0,0.,12.0
1981-08-29 15:39:49.310 ,4,0,0.,12.0,0.,12.0,0.,12.0,0.,12.0
1981-08-29 15:40:01.310 ,5,1,0.,12.0,0.,12.0,0.,12.0,0.,12.0
1981-08-29 15:40:13.310 ,5,1,0.,12.0,0.,12.0,0.,12.0,0.,12.0
1981-08-29 15:40:25.310 ,5,0,0.,12.0,0.,12.0,0.,12.0,0.,12.0
1981-08-29 15:40:37.310 ,5,0,0.,12.0,0.,12.0,0.,12.0,0.,12.0
1981-08-29 15:40:49.310 ,6,1,0.,12.0,0.,12.0,0.,12.0,0.,12.0
1981-08-29 15:41:01.310 ,6,1,0.,12.0,0.,12.0,0.,12.0,0.,12.0
1981-08-29 15:41:13.310 ,6,0,0.,12.0,0.,12.0,0.,12.0,1.,12.0
1981-08-29 15:41:25.310 ,6,0,0.,12.0,0.,12.0,0.,12.0,0.,12.0
1981-08-29 15:41:37.310 ,7,1,0.,12.0,0.,12.0,0.,12.0,0.,12.0
1981-08-29 15:41:49.310 ,7,1,0.,12.0,0.,12.0,0.,12.0,0.,12.0
1981-08-29 15:42:01.310 ,7,0,0.,12.0,0.,12.0,0.,12.0,0.,12.0
1981-08-29 15:42:13.310 ,7,0,0.,12.0,0.,12.0,0.,12.0,0.,12.0
1981-08-29 15:42:25.310 ,7,1,0.,12.0,0.,12.0,0.,12.0,0.,12.0
1981-08-29 15:42:37.310 ,7,1,0.,12.0,0.,12.0,0.,12.0,0.,12.0
1981-08-29 15:42:49.310 ,0,0,0.,12.0,0.,12.0,0.,12.0,0.,12.0
1981-08-29 15:43:01.310 ,0,0,0.,12.0,0.,12.0,0.,12.0,0.,12.0
1981-08-29 15:46:40.310 ,0,0,,0,,0,,0,,0
1981-08-29 15:46:52.310 ,0,0,,0,,0,,0,,0
1981-08-29 15:46:49.310 ,3,1,0.,12.0,0.,12.0,0.,12.0,0.,12.0
1981-08-29 15:47:01.310 ,3,1,0.,12.0,0.,12.0,0.,12.0,0.,12.0
1981-08-29 15:47:13.310 ,3,0,0.,12.0,0.,12.0,0.,12.0,0.,12.0
1981-08-29 15:47:25.310 ,3,0,,0,,0,,0,,0
1981-08-29 15:47:37.310 ,5,1,0.,12.0,0.,12.0,0.,12.0,0.,12.0
1981-08-29 15:47:49.310 ,5,1,0.,12.0,0.,12.0,0.,12.0,0.,12.0
1981-08-29 15:48:01.310 ,6,1,0.,12.0,0.,12.0,0.,12.0,0.,12.0
1981-08-29 15:48:13.310 ,6,1,0.,12.0,0.,12.0,0.,12.0,0.,12.0
1981-08-29 15:48:25.310 ,7,1,0.,12.0,0.,12.0,0.,12.0,0.,12.0
1981-08-29 15:48:37.310 ,7,1,0.,12.0,0.,12.0,0.,12.0,0.,12.0
1981-08-29 15:48:49.310 ,7,1,0.,12.0,0.,12.0,0.,12.0,0.,12.0
1981-08-29 15:49:01.310 ,7,1,0.,12.0,0.,12.0,0.,12.0,0.,12.0
1981-08-29 15:49:13.310 ,7,0,0.,12.0,0.,12.0,0.,12.0,0.,12.0
1981-08-29 15:49:25.310 ,7,0,0.,12.0,0.,12.0,0.,12.0,0.,12.0
1981-08-29 15:49:37.310 ,6,1,0.,12.0,0.,12.0,0.,12.0,0.,12.0
1981-08-29 15:49:49.310 ,6,1,0.,12.0,0.,12.0,0.,12.0,0.,12.0
1981-08-29 15:50:01.310 ,6,0,0.,12.0,0.,12.0,0.,12.0,0.,12.0
1981-08-29 15:50:13.310 ,6,0,0.,12.0,0.,12.0,0.,12.0,0.,12.0
1981-08-29 15:50:25.310 ,5,1,0.,12.0,0.,12.0,0.,12.0,0.,12.0
1981-08-29 15:50:37.310 ,5,1,0.,12.0,0.,12.0,0.,12.0,0.,12.0
1981-08-29 15:50:49.310 ,5,0,0.,12.0,0.,12.0,0.,12.0,0.,12.0
1981-08-29 15:51:01.310 ,5,0,0.,12.0,0.,12.0,0.,12.0,0.,12.0
1981-08-29 15:51:13.310 ,4,1,0.,12.0,0.,12.0,0.,12.0,0.,12.0
1981-08-29 15:51:25.310 ,4,1,0.,12.0,0.,12.0,0.,12.0,0.,12.0
1981-08-29 15:51:37.310 ,4,0,0.,12.0,0.,12.0,0.,12.0,0.,12.0
1981-08-29 15:51:49.310 ,4,0,0.,12.0,0.,12.0,0.,12.0,0.,12.0
1981-08-29 15:52:01.310 ,3,1,0.,12.0,0.,12.0,0.,12.0,0.,12.0
1981-08-29 15:52:13.310 ,3,1,0.,12.0,0.,12.0,0.,12.0,0.,12.0
1981-08-29 15:52:25.310 ,3,0,0.,12.0,0.,12.0,0.,12.0,0.,12.0
1981-08-29 15:52:37.310 ,3,0,0.,12.0,0.,12.0,0.,12.0,0.,12.0
1981-08-29 15:52:49.310 ,2,1,0.,12.0,0.,12.0,0.,12.0,0.,12.0
1981-08-29 15:53:01.310 ,2,1,0.,12.0,0.,12.0,0.,12.0,0.,12.0
1981-08-29 15:53:13.310 ,2,0,0.,12.0,0.,12.0,0.,12.0,0.,12.0
1981-08-29 15:53:25.310 ,2,0,0.,12.0,0.,12.0,0.,12.0,0.,12.0
1981-08-29 15:53:37.310 ,1,1,0.,12.0,0.,12.0,0.,12.0,0.,12.0
1981-08-29 15:53:49.310 ,1,1,0.,12.0,0.,12.0,0.,12.0,0.,12.0
1981-08-29 15:54:01.310 ,1,0,0.,12.0,0.,12.0,0.,12.0,0.,12.0
1981-08-29 15:54:13.310 ,1,0,0.,12.0,0.,12.0,0.,12.0,0.,12.0
1981-08-29 15:54:25.310 ,0,1,0.,12.0,0.,12.0,0.,12.0,0.,12.0
1981-08-29 15:54:37.310 ,0,1,0.,12.0,0.,12.0,0.,12.0,0.,12.0
1981-08-29 15:54:49.310 ,0,0,0.,12.0,0.,12.0,0.,12.0,0.,12.0
1981-08-29 15:55:01.310 ,0,0,0.,12.0,0.,12.0,0.,12.0,0.,12.0
1981-08-29 15:55:13.310 ,0,1,0.,12.0,0.,12.0,0.,12.0,0.,12.0
1981-08-29 15:55:25.310 ,0,1,0.,12.0,0.,12.0,0.,12.0,0.,12.0
1981-08-29 15:55:37.310 ,0,0,0.,12.0,0.,12.0,0.,12.0,0.,12.0
1981-08-29 15:55:49.310 ,0,0,0.,12.0,0.,12.0,0.,12.0,0.,12.0
1981-08-29 15:56:01.310 ,1,1,0.,12.0,0.,12.0,0.,12.0,0.,12.0
1981-08-29 15:56:13.310 ,1,1,0.,12.0,0.,12.0,0.,12.0,0.,12.0
1981-08-29 15:56:25.310 ,1,0,0.,12.0,0.,12.0,0.,12.0,0.,12.0
1981-08-29 15:56:37.310 ,1,0,0.,12.0,0.,12.0,0.,12.0,0.,12.0
1981-08-29 15:56:49.310 ,2,1,0.,12.0,0.,12.0,0.,12.0,0.,12.0
1981-08-29 15:57:01.310 ,2,1,0.,12.0,0.,12.0,0.,12.0,0.,12.0
1981-08-29 15:57:13.310 ,2,0,0.,12.0,0.,12.0,0.,12.0,0.,12.0
1981-08-29 15:57:25.310 ,2,0,0.,12.0,0.,12.0,0.,12.0,0.,12.0
1981-08-29 15:57:37.310 ,3,1,0.,12.0,0.,12.0,0.,12.0,0.,12.0
1981-08-29 15:57:49.310 ,3,1,0.,12.0,0.,12.0,0.,12.0,0.,12.0
1981-08-29 15:58:01.310 ,3,0,0.,12.0,0.,12.0,0.,12.0,0.,12.0
1981-08-29 15:58:13.310 ,3,0,0.,12.0,0.,12.0,0.,12.0,0.,12.0
1981-08-29 15:58:25.310 ,4,1,0.,12.0,0.,12.0,0.,12.0,0.,12.0
1981-08-29 15:58:37.310 ,4,1,0.,12.0,0.,12.0,0.,12.0,0.,12.0
1981-08-29 15:58:49.310 ,4,0,0.,12.0,0.,12.0,0.,12.0,0.,12.0
1981-08-29 15:59:01.310 ,4,0,0.,12.0,0.,12.0,0.,12.0,0.,12.0
1981-08-29 15:59:13.310 ,5,1,0.,12.0,0.,12.0,0.,12.0,0.,12.0
1981-08-29 15:59:25.310 ,5,1,0.,12.0,0.,12.0,0.,12.0,0.,12.0
1981-08-29 15:59:37.310 ,5,0,0.,12.0,0.,12.0,0.,12.0,0.,12.0
1981-08-29 15:59:49.310 ,5,0,0.,12.0,0.,12.0,0.,12.0,0.,12.0
1981-08-29 16:00:01.310 ,6,1,0.,12.0,0.,12.0,0.,12.0,0.,12.0
1981-08-29 16:00:13.310 ,6,1,0.,12.0,0.,12.0,0.,12.0,0.,12.0
1981-08-29 16:00:25.310 ,6,0,0.,12.0,0.,12.0,0.,12.0,0.,12.0
1981-08-29 16:00:37.310 ,6,0,0.,12.0,0.,12.0,0.,12.0,0.,12.0
1981-08-29 16:00:49.310 ,7,1,0.,12.0,0.,12.0,0.,12.0,0.,12.0
1981-08-29 16:01:01.310 ,7,1,0.,12.0,0.,12.0,0.,12.0,0.,12.0
1981-08-29 16:01:13.310 ,7,0,0.,12.0,0.,12.0,0.,12.0,0.,12.0
1981-08-29 16:01:25.310 ,7,0,0.,12.0,0.,12.0,0.,12.0,0.,12.0
1981-08-29 16:01:37.310 ,7,1,0.,12.0,0.,12.0,0.,12.0,0.,12.0
1981-08-29 16:01:49.310 ,7,1,0.,12.0,0.,12.0,0.,12.0,0.,12.0
1981-08-29 16:02:01.310 ,6,1,0.,12.0,0.,12.0,0.,12.0,0.,12.0
1981-08-29 16:02:13.310 ,6,1,0.,12.0,0.,12.0,0.,12.0,0.,12.0
1981-08-29 16:02:25.310 ,5,1,0.,12.0,0.,12.0,0.,12.0,0.,12.0
1981-08-29 16:02:37.310 ,5,1,0.,12.0,0.,12.0,0.,12.0,0.,12.0
1981-08-29 16:02:49.310 ,4,1,0.,12.0,0.,12.0,0.,12.0,0.,12.0
1981-08-29 16:03:01.310 ,4,1,0.,12.0,0.,12.0,0.,12.0,0.,12.0
1981-08-29 16:03:13.310 ,3,1,0.,12.0,0.,12.0,0.,12.0,0.,12.0
1981-08-29 16:03:25.310 ,3,1,0.,12.0,0.,12.0,0.,12.0,0.,12.0
1981-08-29 16:03:37.310 ,2,1,0.,12.0,0.,12.0,0.,12.0,0.,12.0
1981-08-29 16:03:49.310 ,2,1,0.,12.0,0.,12.0,0.,12.0,0.,12.0
1981-08-29 16:04:01.310 ,1,1,0.,12.0,0.,12.0,0.,12.0,0.,12.0
1981-08-29 16:04:13.310 ,1,1,0.,12.0,0.,12.0,0.,12.0,0.,12.0
1981-08-29 16:04:25.310 ,0,1,0.,12.0,0.,12.0,0.,12.0,0.,12.0
1981-08-29 16:04:37.310 ,0,1,0.,12.0,0.,12.0,0.,12.0,0.,12.0
1981-08-29 16:04:49.310 ,0,1,0.,12.0,0.,12.0,0.,12.0,0.,12.0
1981-08-29 16:05:01.310 ,0,1,0.,12.0,0.,12.0,0.,12.0,0.,12.0
1981-08-29 16:05:13.310 ,1,1,0.,12.0,0.,12.0,0.,12.0,0.,12.0
1981-08-29 16:05:25.310 ,1,1,0.,12.0,0.,12.0,0.,12.0,0.,12.0
1981-08-29 16:05:37.310 ,2,1,0.,12.0,0.,12.0,0.,12.0,0.,12.0
1981-08-29 16:05:49.310 ,2,1,0.,12.0,0.,12.0,0.,12.0,0.,12.0
1981-08-29 16:06:01.310 ,3,1,0.,12.0,0.,12.0,0.,12.0,0.,12.0
1981-08-29 16:06:13.310 ,3,1,0.,12.0,0.,12.0,0.,12.0,0.,12.0
1981-08-29 16:06:25.310 ,4,1,0.,12.0,0.,12.0,0.,12.0,0.,12.0
1981-08-29 16:06:37.310 ,4,1,0.,12.0,0.,12.0,0.,12.0,0.,12.0
1981-08-29 16:06:49.310 ,5,1,0.,12.0,0.,12.0,0.,12.0,0.,12.0
1981-08-29 16:07:01.310 ,5,1,0.,12.0,0.,12.0,0.,12.0,0.,12.0
1981-08-29 16:07:13.310 ,6,1,0.,12.0,0.,12.0,0.,12.0,0.,12.0
1981-08-29 16:07:25.310 ,6,1,0.,12.0,0.,12.0,0.,12.0,0.,12.0
1981-08-29 16:07:37.310 ,7,1,0.,12.0,0.,12.0,0.,12.0,0.,12.0
1981-08-29 16:07:49.310 ,7,1,0.,12.0,0.,12.0,0.,12.0,0.,12.0
1981-08-29 16:08:01.310 ,7,1,0.,12.0,0.,12.0,0.,12.0,0.,12.0
1981-08-29 16:08:13.310 ,7,1,0.,12.0,0.,12.0,0.,12.0,0.,12.0
1981-08-29 16:08:25.310 ,7,0,0.,12.0,0.,12.0,0.,12.0,0.,12.0
1981-08-29 16:08:37.310 ,7,0,0.,12.0,0.,12.0,0.,12.0,0.,12.0
1981-08-29 16:08:49.310 ,6,1,0.,12.0,0.,12.0,0.,12.0,0.,12.0
1981-08-29 16:09:01.310 ,6,1,0.,12.0,0.,12.0,0.,12.0,0.,12.0
1981-08-29 16:09:13.310 ,6,0,0.,12.0,0.,12.0,0.,12.0,0.,12.0
1981-08-29 16:09:25.310 ,6,0,0.,12.0,0.,12.0,0.,12.0,0.,12.0
1981-08-29 16:09:37.310 ,5,1,0.,12.0,0.,12.0,0.,12.0,0.,12.0
1981-08-29 16:09:49.310 ,5,1,0.,12.0,0.,12.0,0.,12.0,0.,12.0
1981-08-29 16:10:01.310 ,5,0,0.,12.0,0.,12.0,0.,12.0,0.,12.0
1981-08-29 16:10:13.310 ,5,0,0.,12.0,0.,12.0,0.,12.0,0.,12.0
1981-08-29 16:10:25.310 ,4,1,0.,12.0,0.,12.0,0.,12.0,0.,12.0
1981-08-29 16:10:37.310 ,4,1,0.,12.0,0.,12.0,0.,12.0,0.,12.0
1981-08-29 16:10:49.310 ,4,0,0.,12.0,0.,12.0,0.,12.0,0.,12.0
1981-08-29 16:11:01.310 ,4,0,0.,12.0,0.,12.0,0.,12.0,0.,12.0
1981-08-29 16:11:13.310 ,3,1,0.,12.0,0.,12.0,0.,12.0,0.,12.0
1981-08-29 16:11:25.310 ,3,1,0.,12.0,0.,12.0,0.,12.0,0.,12.0
1981-08-29 16:11:37.310 ,3,0,0.,12.0,0.,12.0,0.,12.0,0.,12.0
1981-08-29 16:11:49.310 ,3,0,0.,12.0,0.,12.0,0.,12.0,0.,12.0
1981-08-29 16:12:01.310 ,2,1,0.,12.0,0.,12.0,0.,12.0,0.,12.0
1981-08-29 16:12:13.310 ,2,1,0.,12.0,0.,12.0,0.,12.0,0.,12.0
1981-08-29 16:12:25.310 ,2,0,0.,12.0,0.,12.0,0.,12.0,0.,12.0
1981-08-29 16:12:37.310 ,2,0,0.,12.0,0.,12.0,0.,12.0,0.,12.0
1981-08-29 16:12:49.310 ,1,1,0.,12.0,0.,12.0,0.,12.0,0.,12.0
1981-08-29 16:13:01.310 ,1,1,0.,12.0,0.,12.0,0.,12.0,0.,12.0
1981-08-29 16:13:13.310 ,1,0,0.,12.0,0.,12.0,0.,12.0,0.,12.0
1981-08-29 16:13:25.310 ,1,0,0.,12.0,0.,12.0,0.,12.0,0.,12.0
1981-08-29 16:13:37.310 ,0,1,0.,12.0,0.,12.0,0.,12.0,0.,12.0
1981-08-29 16:13:49.310 ,0,1,0.,12.0,0.,12.0,0.,12.0,0.,12.0
1981-08-29 16:14:01.310 ,0,0,0.,12.0,0.,12.0,0.,12.0,0.,12.0
1981-08-29 16:14:13.310 ,0,0,0.,12.0,0.,12.0,0.,12.0,0.,12.0
1981-08-29 16:14:25.310 ,0,1,0.,12.0,0.,12.0,0.,12.0,0.,12.0
1981-08-29 16:14:37.310 ,0,1,0.,12.0,0.,12.0,0.,12.0,0.,12.0
1981-08-29 16:14:49.310 ,0,0,0.,12.0,0.,12.0,0.,12.0,0.,12.0
1981-08-29 16:15:01.310 ,0,0,0.,12.0,0.,12.0,0.,12.0,0.,12.0
1981-08-29 16:15:13.310 ,1,1,0.,12.0,0.,12.0,0.,12.0,0.,12.0
1981-08-29 16:15:25.310 ,1,1,0.,12.0,0.,12.0,0.,12.0,0.,12.0
1981-08-29 16:15:37.310 ,1,0,0.,12.0,0.,12.0,0.,12.0,0.,12.0
1981-08-29 16:15:49.310 ,1,0,0.,12.0,0.,12.0,0.,12.0,0.,12.0
1981-08-29 16:16:01.310 ,2,1,0.,12.0,0.,12.0,0.,12.0,0.,12.0
1981-08-29 16:16:13.310 ,2,1,0.,12.0,0.,12.0,0.,12.0,0.,12.0
1981-08-29 16:16:25.310 ,2,0,0.,12.0,0.,12.0,0.,12.0,0.,12.0
1981-08-29 16:16:37.310 ,2,0,0.,12.0,0.,12.0,0.,12.0,0.,12.0
1981-08-29 16:16:49.310 ,3,1,0.,12.0,0.,12.0,0.,12.0,0.,12.0
1981-08-29 16:17:01.310 ,3,1,0.,12.0,0.,12.0,0.,12.0,0.,12.0
1981-08-29 16:17:13.310 ,3,0,0.,12.0,0.,12.0,0.,12.0,0.,12.0
1981-08-29 16:17:25.310 ,3,0,0.,12.0,0.,12.0,0.,12.0,0.,12.0
1981-08-29 16:17:37.310 ,4,1,0.,12.0,0.,12.0,0.,12.0,0.,12.0
1981-08-29 16:17:49.310 ,4,1,0.,12.0,0.,12.0,0.,12.0,0.,12.0
1981-08-29 16:18:01.310 ,4,0,0.,12.0,0.,12.0,0.,12.0,0.,12.0
1981-08-29 16:18:13.310 ,4,0,0.,12.0,0.,12.0,0.,12.0,0.,12.0
1981-08-29 16:18:25.310 ,5,1,0.,12.0,0.,12.0,0.,12.0,0.,12.0
1981-08-29 16:18:37.310 ,5,1,0.,12.0,0.,12.0,0.,12.0,0.,12.0
1981-08-29 16:18:49.310 ,5,0,0.,12.0,0.,12.0,0.,12.0,0.,12.0
1981-08-29 16:19:01.310 ,5,0,0.,12.0,0.,12.0,0.,12.0,0.,12.0
1981-08-29 16:19:13.310 ,6,1,0.,12.0,0.,12.0,0.,12.0,0.,12.0
1981-08-29 16:19:25.310 ,6,1,0.,12.0,0.,12.0,0.,12.0,0.,12.0
1981-08-29 16:19:37.310 ,6,0,0.,12.0,0.,12.0,0.,12.0,0.,12.0
1981-08-29 16:19:49.310 ,6,0,0.,12.0,0.,12.0,0.,12.0,0.,12.0
1981-08-29 16:20:01.310 ,7,1,0.,12.0,0.,12.0,0.,12.0,0.,12.0
1981-08-29 16:20:13.310 ,7,1,0.,12.0,0.,12.0,0.,12.0,0.,12.0
1981-08-29 16:20:25.310 ,7,0,0.,12.0,0.,12.0,0.,12.0,0.,12.0
1981-08-29 16:20:37.310 ,7,0,0.,12.0,0.,12.0,0.,12.0,0.,12.0
1981-08-29 16:20:49.310 ,7,1,0.,12.0,0.,12.0,0.,12.0,0.,12.0
1981-08-29 16:21:01.310 ,7,1,0.,12.0,0.,12.0,0.,12.0,0.,12.0
1981-08-29 16:21:13.310 ,6,1,0.,12.0,0.,12.0,0.,12.0,0.,12.0